#timestamp,LO_Frequency,Hit,StdDev 
1652961615.4,286046991.9,N
1652961635.2,286046990.2,N
1652961655.0,286046988.5,N
1652961655.9,286046989.0,N
1652961675.8,286046987.5,N
1652961695.6,286046989.6,N
1652961715.5,286046987.3,N
1652961735.3,286046988.8,N
1652961755.1,286046988.7,N
1652961775.9,286046991.4,N
1652961795.7,286046994.1,N
1652961815.5,286046993.2,N
1652961835.4,286046989.9,N
1652961855.2,286046982.5,N
1652961875.0,286046982.9,N
1652961876.0,286046980.6,N
1652961895.8,286046982.0,N
1652961915.6,286046979.8,N
1652961935.5,286046976.0,Y
1652961955.3,286046981.3,P
1652961975.1,286046978.9,P
1652961995.9,286046981.6,N
1652962015.7,286046979.0,Y
1652962035.6,286046993.3,P
1652962055.4,286046994.7,N
1652962075.2,286046994.3,N
1652962095.1,286046994.7,N
1652962096.0,286046992.5,N
1652962115.8,286046994.2,N
1652962135.7,286046997.5,N
1652962155.5,286046995.5,N
1652962175.3,286046997.8,N
1652962195.2,286046995.4,N
1652962215.9,286046996.2,N
1652962235.7,286046993.5,N
1652962255.6,286046994.8,N
1652962275.4,286046993.5,N
1652962295.3,286046994.0,N
1652962315.1,286046992.1,N
1652962316.0,286046991.9,N
1652962335.8,286046994.3,N
1652962355.7,286046994.2,N
1652962375.5,286046995.9,N
1652962395.3,286046994.1,N
1652962415.2,286046997.8,N
1652962435.0,286046998.6,N
1652962435.9,286046995.3,N
1652962455.8,286046995.3,N
1652962475.6,286046997.4,N
1652962495.4,286046993.3,N
1652962515.3,286046997.7,N
1652962535.1,286046999.3,N
1652962555.8,286046998.8,N
1652962575.7,286046996.3,N
1652962595.5,286046996.4,N
1652962615.4,286046991.9,Y
1652962635.2,286046995.9,P
1652962655.0,286046993.2,P
1652962655.9,286046986.9,P
1652962675.8,286046985.4,Y
1652962695.6,286046992.6,P
1652962715.4,286046994.7,P
1652962735.3,286046996.5,P
1652962755.1,286046995.3,Y
1652962775.9,286046998.6,P
1652962795.7,286046999.0,N
1652962815.5,286047000.5,N
1652962835.4,286046998.5,N
1652962855.2,286047000.7,N
1652962875.0,286047004.3,N
1652962876.0,286047010.0,Y
1652962895.8,286047008.8,P
1652962915.6,286046999.9,N
1652962935.5,286047000.3,N
1652962955.3,286046997.4,N
1652962975.1,286046995.4,N
1652962995.9,286046993.6,N
1652963015.7,286046995.8,N
1652963035.5,286046993.9,N
1652963055.4,286046990.6,N
1652963075.2,286046989.2,N
1652963095.1,286046988.7,N
1652963096.0,286046988.9,N
1652963115.8,286046992.1,N
1652963135.6,286046996.3,N
1652963155.5,286046997.0,N
1652963175.3,286046992.2,N
1652963195.1,286046992.8,N
1652963215.9,286046994.4,N
1652963235.7,286046994.5,N
1652963255.6,286046998.3,N
1652963275.4,286046998.6,N
1652963295.2,286046995.6,N
1652963315.1,286046995.9,N
1652963316.0,286046993.5,N
1652963335.8,286046998.5,N
1652963355.6,286046996.6,N
1652963375.5,286046991.9,N
1652963395.3,286046989.3,N
1652963415.2,286046987.4,Y
1652963435.9,286046990.5,P
1652963455.7,286046993.3,N
1652963475.6,286046997.3,N
1652963495.4,286046996.7,N
1652963515.2,286046996.7,N
1652963535.1,286046998.0,N
1652963536.0,286046993.4,N
1652963555.8,286046992.3,Y
1652963575.7,286047000.6,P
1652963595.5,286046995.0,N
1652963615.3,286046994.5,N
1652963635.2,286046994.7,N
1652963655.0,286046994.3,N
1652963655.9,286046994.0,N
1652963675.8,286046992.5,Y
1652963695.6,286047004.8,P
1652963715.4,286047003.5,N
1652963735.3,286047002.4,N
1652963755.1,286047001.6,N
1652963775.8,286047009.1,N
1652963795.7,286047007.9,N
1652963815.5,286047005.1,N
1652963835.4,286047005.4,N
1652963855.2,286047000.5,N
1652963875.0,286047001.1,N
1652963875.9,286046998.7,N
1652963895.8,286046996.1,N
1652963915.6,286046998.2,N
1652963935.4,286046995.7,N
1652963955.3,286046992.8,N
1652963975.1,286046990.8,N
1652963995.9,286046989.2,N
1652964015.7,286046988.4,N
1652964035.5,286046984.5,N
1652964055.4,286046982.1,N
1652964075.2,286046982.3,N
1652964095.0,286046983.2,N
1652964095.9,286046981.7,N
1652964115.8,286046980.7,N
1652964135.6,286046983.5,N
1652964155.5,286046984.5,N
1652964175.3,286046987.3,N
1652964225.2,286046988.6,E
1652964235.1,286046988.6,N
1652964236.0,286047001.9,P
1652964255.8,286046999.7,N
1652964275.7,286046994.9,N
1652964295.5,286046993.4,N
1652964315.3,286046997.0,N
1652964335.2,286046999.4,N
1652964355.0,286047000.3,N
1652964355.9,286047001.2,N
1652964375.8,286047002.0,N
1652964395.6,286047007.0,N
1652964415.4,286047003.6,N
1652964435.3,286047000.0,N
1652964455.1,286047004.4,N
1652964475.8,286047001.5,N
1652964495.7,286047003.2,N
1652964515.5,286047003.6,N
1652964535.4,286047006.3,N
1652964555.2,286047008.1,N
1652964575.0,286047011.8,N
1652964575.9,286047015.9,Y
1652964595.8,286047011.3,P
1652964615.6,286047012.0,N
1652964635.4,286047014.2,N
1652964655.3,286047015.7,Y
1652964675.1,286047003.8,P
1652964695.9,286047000.6,N
1652964715.7,286046997.1,N
1652964735.5,286046992.8,N
1652964755.4,286046987.0,N
1652964775.2,286046989.6,N
1652964795.0,286046985.4,N
1652964795.9,286046985.0,N
1652964815.8,286046978.9,N
1652964835.6,286046976.6,N
1652964855.5,286046973.1,N
1652964875.3,286046969.5,N
1652964895.1,286046969.3,N
1652964915.9,286046978.7,N
1652964935.7,286046986.0,N
1652964955.6,286046987.5,N
1652964975.4,286046988.1,N
1652964995.2,286046983.5,N
1652965015.1,286046979.8,N
1652965016.0,286046978.1,N
1652965035.8,286046978.1,N
1652965055.6,286046974.6,N
1652965075.5,286046974.5,N
1652965095.3,286046979.8,N
1652965115.2,286046980.2,N
1652965135.9,286046971.4,N
1652965155.7,286046970.5,N
1652965175.6,286046969.2,Y
1652965195.4,286046982.3,P
